Tracking 30115 objects as of 9-Feb-2025
HD Live streaming from Space Station
objects crossing your sky now

CZ-4B DEB

Track CZ-4B DEB now!
10-day predictions


NORAD ID: 34223
Int'l Code: 2002-024H
Perigee: 792.4 km
Apogee: 979.2 km
Inclination: 99.1 °
Period: 102.5 minutes
Semi major axis: 7256 km
RCS: 0.0196 m2 (small)
Launch date: May 15, 2002
Source: People's Republic of China (PRC)
Launch site: Taiyaun Space Center, China (TSC)

Note: This is SATELLITE DEBRIS
Your satellite tracking list
Your tracking list is empty




NASA's NSSDC Master Catalog

Two Line Element Set (TLE):
1 34223U 02024H   25039.83786704  .00001269  00000-0  76738-3 0  9996
2 34223  99.1204  85.3835 0128669 288.2409  70.4790 14.04386206142073
Source of the keplerian elements: AFSPC